Location: Newark
(49.5647°N, 8.2922°E)
Time: 09:52:58
(UTC+00:00)

Transit 2A - Pass Details

Date: 18 February 2020
Orbit: 597 x 961 km, 66.7° (Epoch: 28 March)

Event Time Altitude Azimuth Distance (km) Brightness Sun altitude
Rises 16:14:49 0° 278° (W) 2,849 10.1 4.5°
Reaches altitude 10° 16:18:02 10° 304° (NW) 1,973 8.7 4.1°
Maximum altitude 16:20:25 14° 337° (NNW) 1,741 7.9 3.7°
Drops below altitude 10° 16:22:53 10° 10° (N) 2,044 7.9 3.3°
Sets 16:26:20 0° 35° (NE) 3,025 8.6 2.8°
